Regional Weather Roundup
Issued by NWS Burlington, VT

Home | Current Version | Previous Version | Text Only | Print | Product List | Glossary On
Versions: 1 2 3 4 5 6 7 8 9 10 11 12 13 14 15 16 17 18 19 20 21 22 23 24 25 26 27 28 29 30 31 32 33 34 35 36 37 38 39 40 41 42 43 44 45 46 47 48 49 50
000
ASUS41 KBTV 222130
RWRBTV
VERMONT REGIONAL WEATHER ROUNDUP
NATIONAL WEATHER SERVICE BURLINGTON VT
400 PM EST SAT NOV 22 2014

NOTE: "FAIR" INDICATES FEW OR NO CLOUDS BELOW 12,000 FEET WITH NO
SIGNIFICANT WEATHER AND/OR OBSTRUCTIONS TO VISIBILITY.

* THESE REPORTS ARE NOT UNDER NWS QUALITY CONTROL AND/OR DO NOT
  REPORT WEATHER SUCH AS PRECIPITATION AND FOG.

VTZ001>019-222200-
_____VERMONT_____


CITY           SKY/WX    TMP DP  RH WIND       PRES   REMARKS
BURLINGTON     MOCLDY    36   9  32 S21G33    29.95F
MONTPELIER     CLOUDY    33  10  38 S15G21    30.00F
ST. JOHNSBURY*   N/A     34  11  38 MISG      29.98S
LYNDONVILLE*   CLOUDY    31  10  39 SE8       29.97F
MIDDLEBURY*    CLOUDY    37   6  27 S14G28    30.01F
RUTLAND*       CLOUDY    37   7  28 CALM      30.03F
SPRINGFIELD    CLOUDY    34  12  40 SE6       30.07F
HIGHGATE*      CLOUDY    34  12  39 S14G22    29.90F
NEWPORT*       CLOUDY    32  15  49 S7        29.91F
BENNINGTON     CLOUDY    38   9  30 S7        30.08F
SUTTON*          N/A     28 N/A N/A MISG        N/A
GALLUP MILLS*    N/A     30 N/A N/A MISG        N/A
UNION VILLAGE*   N/A     34 N/A N/A MISG        N/A
MT. MANSFIELD*   N/A     25 N/A N/A W23G44      N/A  WCI  10

_____LAKE CHAMPLAIN_____


CITY           SKY/WX    TMP DP  RH WIND       PRES   REMARKS
BURTON ISLAND*   N/A     37  23  56 S31         N/A
COLCHESTER RF*   N/A     37  23  56 SW41        N/A
DIAMOND ISL*     N/A     36  18  48 SE23        N/A

$$

NYZ007-026>031-035-052-083-222200-
_____NORTHERN NEW YORK_____


CITY           SKY/WX    TMP DP  RH WIND       PRES   REMARKS
PLATTSBURGH    CLOUDY    34  15  46 S12G21    29.92F
SARANAC LAKE     N/A     33  27  78 MISG      29.89R
MASSENA        CLOUDY    38  21  50 SW18G35   29.91R
OGDENSBURG*    DRIZZLE   37  28  70 SW14G22   29.92F
POTSDAM*       LGT RAIN  36  32  87 SW21G26   29.91F
STARK FALLS*     N/A     34 N/A N/A S16         N/A
WATERTOWN      LGT RAIN  38  28  67 S14G22    29.97F
FT DRUM        CLOUDY    36  32  87 SW16      29.96F
ALBANY         LGT RAIN  36  19  50 S7        30.12F
GLENS FALLS    LGT RAIN  33  16  49 SW7       30.10F

$$
NHZ002-005-011-222200-
_____NEW HAMPSHIRE_____


CITY           SKY/WX    TMP DP  RH WIND       PRES   REMARKS
LEBANON        CLOUDY    37  11  34 S18       30.04F
KEENE          MOCLDY    37  10  32 S7        30.11S
MT WASHINGTON  FOG       18  18 100 W75         N/A  VSB 0   WCI -10
PLYMOUTH       CLOUDY    33  20  59 CALM      30.05F
WHITEFIELD     PTCLDY    35   9  33 NW3       29.97F

$$

_____REGIONAL QUEBEC LOCATIONS_____


CITY           SKY/WX    TMP DP  RH WIND       PRES   REMARKS
MONTREAL       FRZ RAIN  34  21  60 SW12      29.90S
QUEBEC CITY    FLURRIES  30  21  69 SW13G24   29.82F
SHERBROOKE     CLOUDY    34  16  47 S5        29.87F

_____REGIONAL ONTARIO LOCATIONS_____


CITY           SKY/WX    TMP DP  RH WIND       PRES   REMARKS
OTTAWA         LGTSLEET  34  28  80 SW13G18   29.87F FOG

______KEY______
VSB  - VISIBILITY IN MILES
WCI  - WIND CHILL INDEX
HX   - HEAT INDEX
$$
NNNN


USA.gov is the U.S. government's official web portal to all federal, state and local government web resources and services.